Back to catalog

FENGYUN 1C DEB

AliveSSO
NORAD 30849·DEBRIS·🇨🇳 China

Launched May 10, 1999 from Taiyuan Satellite Launch Center

Loading…

Next Passes (next 24 hours)

TLE

FreshSource: Space-Track

Epoch: Sep 12, 2026, 16:36 UTC

1 30849U 99025AWK 26255.69175648  .00001456  00000-0  69628-3 0  9995
2 30849  99.0294 326.2673 0046759 304.4107 207.8494 14.20175676  2531

Track FENGYUN 1C DEB in real time with AllMySat

Download on the App Store